FW5436 Weather Reports


Display with metric or nautical units.
time (UTC)temp
F
wind
direction
speed
MPH
gust
MPH
rain 1hr
in
rain 24hr
in
rain mn
in
humidity
%
barometer
mb
20260508060527 53 113 2.0 7.0 0.00 0.00 0.21 98 993.4
20260508060017 53 68 3.0 11.0 0.00 0.00 0.21 98 993.6
20260508055507 53 0 5.0 11.0 0.00 0.00 0.21 98 993.5
20260508053936 55 23 4.0 7.0 0.00 0.00 0.21 98 993.4
20260508053426 55 45 3.0 0.0 0.00 0.00 0.21 98 993.2
20260508053209 55 45 3.0 0.0 0.00 0.00 0.21 98 993.2
20260508052631 55 0 2.0 6.0 0.19 0.25 0.21 98 993.2
20260508052121 55 23 1.0 6.0 0.19 0.24 0.20 98 993.3
20260508051100 56 45 1.0 4.0 0.15 0.20 0.17 98 993.3
20260508050550 56 68 1.0 4.0 0.14 0.19 0.15 98 993.5
20260508050041 56 45 1.0 4.0 0.13 0.18 0.14 98 993.6
20260508045530 56 23 1.0 4.0 0.12 0.17 0.13 98 993.8
20260508044519 56 90 2.0 4.0 0.07 0.12 0.09 98 993.9
20260508044000 56 45 1.0 2.0 0.06 0.11 0.07 98 993.8
20260508043449 56 45 0.0 2.0 0.04 0.08 0.05 98 994.1
20260508042939 56 45 1.0 4.0 0.02 0.07 0.04 98 994.1
20260508041919 57 45 1.0 2.0 0.00 0.05 0.01 98 994.0
20260508041408 57 68 1.0 2.0 0.00 0.05 0.01 98 994.1
20260508040350 57 68 2.0 4.0 0.01 0.05 0.01 98 994.0
20260508035838 57 68 0.0 2.0 0.01 0.05 0.01 98 994.0
20260508034826 57 45 0.0 2.0 0.01 0.05 0.01 98 993.8
20260508034308 57 45 0.0 2.0 0.01 0.05 0.01 97 993.6
20260508033759 57 45 0.0 2.0 0.01 0.05 0.01 97 993.5
20260508033249 57 45 0.0 2.0 0.01 0.05 0.01 97 993.5
20260508032737 57 68 0.0 2.0 0.01 0.05 0.01 97 993.5
20260508032227 57 248 0.0 2.0 0.01 0.05 0.01 97 994.0
20260508031207 57 68 0.0 4.0 0.01 0.05 0.01 97 993.8
20260508030148 57 45 1.0 2.0 0.00 0.04 0.00 97 993.9
20260508025636 56 45 1.0 4.0 0.00 0.04 0.69 97 994.0
20260508025126 57 23 1.0 4.0 0.00 0.04 0.69 97 994.1
20260508024616 56 68 1.0 4.0 0.00 0.04 0.69 97 994.2
20260508024106 56 90 2.0 4.0 0.01 0.04 0.69 97 994.5
20260508022536 56 68 2.0 7.0 0.02 0.04 0.69 97 994.9
20260508022025 57 68 3.0 7.0 0.02 0.04 0.69 97 995.1
20260508021516 56 68 3.0 8.0 0.02 0.04 0.69 97 994.8
20260508021006 57 45 4.0 8.0 0.04 0.04 0.69 97 995.2
20260508020456 57 68 2.0 4.0 0.04 0.04 0.69 97 995.1
20260508015945 57 23 2.0 6.0 0.04 0.04 0.69 97 995.3
20260508014924 57 90 3.0 6.0 0.04 0.04 0.69 96 995.2
20260508014415 57 45 2.0 6.0 0.04 0.04 0.69 96 995.3
20260508013904 57 68 2.0 6.0 0.02 0.02 0.67 96 995.5
20260508013354 57 90 2.0 7.0 0.01 0.01 0.66 96 995.5
20260508012844 57 68 4.0 7.0 0.01 0.01 0.66 96 995.6
20260508012333 57 68 2.0 7.0 0.01 0.01 0.66 96 995.6
20260508011824 57 68 2.0 7.0 0.01 0.01 0.66 96 995.7
20260508011313 57 45 2.0 7.0 0.01 0.01 0.66 96 995.6
20260508010804 57 45 2.0 6.0 0.00 0.00 0.65 95 995.9
20260508010254 57 45 1.0 7.0 0.00 0.00 0.65 95 995.6
20260508005743 57 68 2.0 7.0 0.00 0.00 0.65 95 995.7
20260508005233 57 23 3.0 7.0 0.00 0.00 0.65 95 995.8
20260508004723 57 68 2.0 7.0 0.00 0.00 0.65 95 995.9
20260508004213 57 23 4.0 7.0 0.00 0.00 0.65 94 996.1
20260508003703 57 45 2.0 9.0 0.00 0.00 0.65 94 996.0
20260508003152 57 45 3.0 9.0 0.00 0.00 0.65 94 996.1
20260508002642 57 90 4.0 9.0 0.00 0.00 0.65 94 996.1
20260508002132 58 45 4.0 8.0 0.00 0.00 0.65 93 996.2
20260508001111 58 45 4.0 8.0 0.00 0.00 0.65 93 996.5
20260508000618 58 113 5.0 9.0 0.00 0.00 0.65 93 996.5
20260508000053 58 90 4.0 14.0 0.00 0.00 0.65 93 996.4
20260507235544 58 68 7.0 14.0 0.00 0.00 0.65 93 996.7
20260507235031 58 68 4.0 11.0 0.00 0.00 0.65 93 996.6
20260507234520 58 0 4.0 9.0 0.00 0.00 0.65 93 996.8
20260507234011 59 23 3.0 9.0 0.00 0.00 0.65 93 997.0
20260507232951 59 23 4.0 9.0 0.00 0.00 0.65 94 996.9
20260507232441 59 45 4.0 7.0 0.00 0.00 0.65 94 996.6
20260507231930 59 23 2.0 7.0 0.00 0.00 0.65 94 996.5
20260507231420 60 68 3.0 11.0 0.00 0.00 0.65 93 996.4
20260507230910 60 45 2.0 11.0 0.00 0.00 0.65 93 996.5
20260507230359 60 45 2.0 8.0 0.00 0.00 0.65 93 996.2
20260507225850 60 68 4.0 8.0 0.00 0.00 0.65 92 996.1
20260507225340 60 68 2.0 8.0 0.00 0.00 0.65 92 995.8
20260507224829 60 68 2.0 6.0 0.00 0.00 0.65 91 995.8
20260507224319 60 0 2.0 6.0 0.00 0.00 0.65 91 996.0
20260507223810 60 68 2.0 4.0 0.00 0.00 0.65 90 995.8
20260507223259 61 45 2.0 4.0 0.00 0.00 0.65 91 995.7
20260507222749 61 90 1.0 2.0 0.00 0.00 0.65 91 995.8
20260507222239 61 68 1.0 4.0 0.00 0.00 0.65 90 995.6
20260507221728 61 45 2.0 4.0 0.00 0.00 0.65 90 995.8
20260507221218 61 45 2.0 2.0 0.00 0.00 0.65 90 995.9
20260507220708 61 45 1.0 2.0 0.00 0.00 0.65 90 995.8
20260507215648 61 45 0.0 2.0 0.00 0.00 0.65 89 996.0
20260507215138 61 113 0.0 0.0 0.00 0.00 0.65 89 995.7
20260507214627 61 45 0.0 4.0 0.00 0.00 0.65 89 995.6
20260507214117 61 45 0.0 4.0 0.00 0.00 0.65 89 995.4
20260507213608 61 45 0.0 2.0 0.00 0.00 0.65 89 995.4
20260507213057 61 45 1.0 2.0 0.00 0.00 0.65 89 995.8
20260507212547 61 45 1.0 2.0 0.00 0.00 0.65 88 995.5
20260507212037 62 0 0.0 2.0 0.00 0.00 0.65 88 995.3
20260507211527 62 68 0.0 2.0 0.00 0.00 0.65 87 995.2
20260507211017 62 0 0.0 0.0 0.00 0.00 0.65 87 995.2
20260507210512 62 0 0.0 0.0 0.00 0.00 0.65 87 995.5
20260507205956 62 0 0.0 2.0 0.00 0.00 0.65 86 995.6
20260507205447 62 0 0.0 2.0 0.00 0.00 0.65 86 995.6
20260507204936 62 68 1.0 2.0 0.00 0.00 0.65 86 995.6
20260507203916 62 68 2.0 4.0 0.00 0.00 0.65 86 995.6
20260507203405 62 293 2.0 4.0 0.00 0.00 0.65 86 995.8
20260507202349 62 45 2.0 4.0 0.00 0.00 0.65 86 996.3
20260507201326 62 90 2.0 6.0 0.00 0.00 0.65 86 996.3
20260507200815 62 45 2.0 6.0 0.00 0.00 0.65 86 996.2
20260507195754 62 45 1.0 6.0 0.00 0.00 0.65 86 996.2
20260507195254 62 113 3.0 6.0 0.00 0.00 0.65 86 996.1
20260507194224 63 45 2.0 9.0 0.00 0.00 0.65 85 996.2
20260507193714 62 68 2.0 11.0 0.00 0.00 0.65 85 996.1
20260507193204 62 68 5.0 11.0 0.00 0.00 0.65 86 996.1
20260507192653 62 68 4.0 7.0 0.00 0.00 0.65 86 996.0
20260507192144 62 45 2.0 7.0 0.00 0.00 0.65 86 995.7
20260507191635 62 68 2.0 8.0 0.00 0.00 0.65 86 995.6
20260507191124 62 113 4.0 8.0 0.00 0.00 0.65 86 995.5
20260507190117 62 23 2.0 7.0 0.00 0.00 0.65 86 995.3
20260507185554 62 270 2.0 8.0 0.00 0.00 0.65 86 995.5
20260507185043 63 0 3.0 8.0 0.00 0.00 0.65 86 996.0
20260507184532 63 90 3.0 11.0 0.00 0.00 0.65 85 995.9
20260507183002 63 68 3.0 6.0 0.00 0.00 0.65 86 995.6
20260507182452 62 45 2.0 8.0 0.00 0.00 0.65 86 995.6
20260507181939 62 68 2.0 8.0 0.00 0.00 0.65 86 995.8
20260507181430 62 23 3.0 11.0 0.00 0.00 0.65 86 996.1
20260507180411 62 68 2.0 8.0 0.00 0.00 0.65 87 996.1
20260507175902 62 158 3.0 8.0 0.00 0.00 0.65 87 996.1
20260507175352 62 23 4.0 9.0 0.00 0.00 0.65 87 996.3
20260507174846 62 23 4.0 9.0 0.00 0.00 0.65 87 996.4
20260507174331 62 68 5.0 11.0 0.00 0.00 0.65 87 996.5
20260507173826 62 68 3.0 11.0 0.00 0.00 0.65 87 996.2
20260507172801 62 135 4.0 11.0 0.00 0.00 0.65 87 995.9
20260507172250 62 338 2.0 11.0 0.00 0.00 0.65 87 995.6
20260507171740 62 158 3.0 11.0 0.00 0.00 0.65 87 995.8
20260507171230 62 180 4.0 11.0 0.00 0.00 0.65 87 995.5
20260507170209 62 68 2.0 9.0 0.00 0.00 0.65 88 995.5
20260507165700 62 23 3.0 9.0 0.00 0.00 0.65 88 995.5
20260507165149 62 338 5.0 11.0 0.00 0.00 0.65 88 995.4
20260507164639 62 23 4.0 11.0 0.00 0.00 0.65 88 995.3
20260507164132 62 90 4.0 9.0 0.00 0.00 0.65 88 995.4
20260507163619 62 68 4.0 11.0 0.00 0.00 0.65 88 995.7
20260507163110 62 45 3.0 13.0 0.00 0.00 0.65 88 995.7
20260507162559 62 68 4.0 13.0 0.00 0.00 0.65 88 995.7
20260507162049 62 45 4.0 11.0 0.00 0.00 0.65 88 995.7
20260507161539 62 68 5.0 8.0 0.00 0.00 0.65 89 995.7
20260507160007 62 68 4.0 11.0 0.00 0.00 0.65 89 996.0
20260507155458 62 23 3.0 11.0 0.00 0.00 0.65 89 995.9
20260507154437 62 23 4.0 7.0 0.00 0.00 0.65 89 996.3
20260507153927 62 90 2.0 8.0 0.00 0.00 0.65 89 996.1
20260507153417 62 68 3.0 8.0 0.00 0.00 0.65 89 996.4
20260507152907 62 45 2.0 8.0 0.00 0.00 0.65 89 996.5
20260507151847 62 68 2.0 11.0 0.00 0.00 0.65 90 997.0
20260507151337 62 68 5.0 11.0 0.00 0.00 0.65 90 997.1
20260507150826 62 68 1.0 7.0 0.00 0.00 0.65 90 996.9
20260507145256 61 68 4.0 9.0 0.00 0.00 0.65 90 997.6
20260507144236 61 45 3.0 9.0 0.00 0.00 0.65 91 997.0
20260507143726 61 45 4.0 9.0 0.00 0.00 0.65 91 996.8
20260507143215 61 68 2.0 8.0 0.00 0.00 0.65 91 996.5
20260507142705 61 135 2.0 9.0 0.00 0.00 0.65 92 996.3
20260507141644 61 338 2.0 6.0 0.00 0.00 0.65 92 996.2
20260507141135 60 113 2.0 6.0 0.00 0.00 0.65 92 996.6
20260507140626 60 68 2.0 7.0 0.00 0.00 0.65 93 996.5
20260507140114 60 68 2.0 7.0 0.00 0.00 0.65 93 996.4
20260507135605 60 68 2.0 8.0 0.00 0.00 0.65 93 996.7
20260507135059 60 45 2.0 8.0 0.00 0.00 0.65 93 996.4
20260507134544 60 0 3.0 8.0 0.00 0.00 0.65 93 996.5
20260507134034 60 68 3.0 6.0 0.00 0.00 0.65 93 996.5
20260507133524 60 45 2.0 7.0 0.00 0.00 0.65 93 996.6
20260507132504 60 45 2.0 9.0 0.00 0.00 0.65 93 997.0
20260507131953 60 68 3.0 9.0 0.00 0.00 0.65 93 997.5
20260507131444 60 68 3.0 9.0 0.00 0.00 0.65 93 997.9
20260507130933 60 68 3.0 13.0 0.00 0.00 0.65 93 997.7
20260507130428 60 23 4.0 13.0 0.00 0.00 0.65 93 997.7
20260507125916 60 90 2.0 9.0 0.00 0.00 0.65 93 997.2
20260507125402 59 0 4.0 9.0 0.00 0.00 0.65 92 997.0
20260507124343 59 45 2.0 14.0 0.00 0.00 0.65 93 996.8
20260507123832 59 113 4.0 14.0 0.00 0.00 0.65 93 996.7
20260507123322 59 68 3.0 11.0 0.00 0.00 0.65 93 996.3
20260507122812 59 135 4.0 11.0 0.00 0.00 0.65 93 996.6
20260507122306 59 338 3.0 11.0 0.00 0.00 0.65 94 996.6
20260507121751 58 68 3.0 11.0 0.00 0.00 0.65 94 996.4
20260507121241 58 113 5.0 11.0 0.00 0.00 0.65 94 996.5
20260507120221 58 45 6.0 11.0 0.00 0.00 0.65 95 996.5
20260507115711 59 90 3.0 11.0 0.00 0.00 0.65 95 995.9
20260507115201 59 0 3.0 11.0 0.00 0.00 0.65 95 995.7
20260507114651 58 338 4.0 11.0 0.00 0.00 0.65 95 995.5
20260507114144 58 45 4.0 9.0 0.00 0.00 0.65 95 995.2
20260507113631 58 248 3.0 11.0 0.00 0.00 0.65 95 995.0
20260507113121 58 68 4.0 11.0 0.00 0.00 0.65 95 995.5
20260507112610 58 338 2.0 11.0 0.00 0.00 0.65 95 994.9
20260507111549 58 113 4.0 11.0 0.00 0.00 0.65 95 994.4
20260507110529 58 45 3.0 14.0 0.00 0.00 0.65 95 995.2
20260507105509 58 90 5.0 11.0 0.00 0.00 0.65 95 995.6
20260507104959 58 45 4.0 11.0 0.00 0.00 0.65 95 995.8
20260507104449 58 23 4.0 11.0 0.00 0.00 0.65 95 996.1
20260507103939 58 45 4.0 11.0 0.00 0.00 0.65 95 995.9
20260507103429 58 113 4.0 11.0 0.00 0.00 0.65 95 996.3
20260507102408 58 0 4.0 11.0 0.00 0.00 0.65 95 996.1
20260507101858 58 90 4.0 11.0 0.00 0.00 0.65 95 995.9
20260507101349 58 45 4.0 11.0 0.00 0.00 0.65 95 995.3
20260507100838 58 90 4.0 9.0 0.00 0.00 0.65 94 994.7
20260507100328 58 23 4.0 9.0 0.00 0.00 0.65 94 995.0
20260507095817 58 315 4.0 9.0 0.00 0.00 0.65 94 994.2
20260507094758 58 68 4.0 11.0 0.00 0.00 0.65 94 995.2
20260507094247 59 23 4.0 11.0 0.00 0.00 0.65 94 995.4
20260507093737 59 113 4.0 11.0 0.00 0.00 0.65 94 995.4
20260507093227 59 90 4.0 11.0 0.00 0.00 0.65 94 995.2
20260507092717 59 90 4.0 11.0 0.00 0.00 0.65 93 995.5
20260507092206 59 315 4.0 9.0 0.00 0.00 0.65 93 995.0
20260507091701 60 68 4.0 11.0 0.00 0.00 0.65 93 994.6
20260507091146 60 0 4.0 11.0 0.00 0.00 0.65 93 995.4
20260507090638 60 23 3.0 11.0 0.00 0.00 0.65 93 995.3
20260507085616 61 23 7.0 9.0 0.00 0.00 0.65 93 996.3
20260507085106 61 45 2.0 8.0 0.00 0.00 0.65 93 995.0
20260507084555 62 90 1.0 4.0 0.00 0.00 0.65 92 994.7
20260507084046 62 135 0.0 2.0 0.00 0.00 0.65 92 993.6
20260507083537 62 135 1.0 6.0 0.00 0.00 0.65 92 993.4
20260507083025 62 315 1.0 8.0 0.00 0.00 0.65 92 994.4
20260507082515 62 45 2.0 9.0 0.00 0.00 0.65 92 997.1
20260507082010 62 315 2.0 9.0 0.00 0.00 0.65 91 998.0
20260507081455 63 68 3.0 11.0 0.00 0.00 0.65 91 998.2
20260507080945 63 68 3.0 13.0 0.00 0.00 0.65 91 998.3
20260507080434 63 45 5.0 13.0 0.00 0.00 0.65 91 998.3
20260507075414 63 45 4.0 14.0 0.00 0.00 0.65 91 997.7
20260507074904 63 68 6.0 14.0 0.00 0.00 0.65 91 997.6
20260507072823 63 68 4.0 14.0 0.00 0.00 0.65 92 997.0
20260507072313 63 45 6.0 14.0 0.00 0.00 0.65 93 997.2
20260507071803 63 45 8.0 13.0 0.00 0.00 0.65 94 997.1
20260507071254 63 68 4.0 14.0 0.00 0.00 0.65 94 996.5
20260507070743 63 45 4.0 14.0 0.00 0.00 0.65 95 996.2
20260507065724 63 90 3.0 11.0 0.00 0.00 0.65 96 995.7
20260507065212 63 68 3.0 11.0 0.00 0.00 0.65 96 996.2
20260507064702 63 0 4.0 13.0 0.00 0.00 0.65 96 996.6
20260507064152 63 45 3.0 16.0 0.00 0.00 0.65 96 996.3
20260507063642 63 68 7.0 16.0 0.00 0.00 0.65 96 996.8
20260507063132 63 90 6.0 16.0 0.00 0.00 0.65 96 996.6
20260507062622 63 45 7.0 11.0 0.00 0.00 0.65 97 996.3
20260507062111 63 90 4.0 11.0 0.00 0.00 0.65 97 996.2
20260507061602 63 293 4.0 11.0 0.00 0.00 0.65 97 995.9
20260507061051 63 68 4.0 11.0 0.00 0.00 0.65 97 995.9